Time,TemperatureF,DewpointF,PressureIn,WindDirection,WindDirectionDegrees,WindSpeedMPH,WindSpeedGustMPH,Humidity,HourlyPrecipIn,Conditions,Clouds,dailyrainin,SoftwareType,DateUTC
2013-06-17 00:00:00,76.9,70.0,30.09,SSW,205,1.0,4.0,80,0.00,,,0.00,weatherlink.com 1.10,2013-06-17 04:00:00,
2013-06-17 00:15:00,76.9,71.0,30.09,WSW,240,1.0,4.0,81,0.00,,,0.00,weatherlink.com 1.10,2013-06-17 04:15:00,
2013-06-17 00:30:00,76.8,71.0,30.09,SSE,156,0.0,4.0,81,0.00,,,0.00,weatherlink.com 1.10,2013-06-17 04:30:00,
2013-06-17 00:45:00,77.0,71.0,30.09,SSW,201,3.0,3.0,81,0.00,,,0.00,weatherlink.com 1.10,2013-06-17 04:45:00,
2013-06-17 01:01:00,77.0,70.0,30.08,SSW,201,1.0,6.0,80,0.00,,,0.00,weatherlink.com 1.10,2013-06-17 05:01:00,
2013-06-17 01:16:00,76.9,70.0,30.08,South,190,1.0,5.0,80,0.00,,,0.00,weatherlink.com 1.10,2013-06-17 05:16:00,
2013-06-17 01:31:00,76.9,71.0,30.09,SW,229,3.0,4.0,82,0.00,,,0.00,weatherlink.com 1.10,2013-06-17 05:31:00,
2013-06-17 01:46:00,76.9,71.0,30.08,WSW,250,1.0,5.0,83,0.00,,,0.00,weatherlink.com 1.10,2013-06-17 05:46:00,
2013-06-17 02:01:00,77.1,70.0,30.08,SW,219,2.0,11.0,79,0.00,,,0.00,weatherlink.com 1.10,2013-06-17 06:01:00,
2013-06-17 02:16:00,77.2,70.0,30.08,WSW,242,3.0,6.0,78,0.00,,,0.00,weatherlink.com 1.10,2013-06-17 06:16:00,
2013-06-17 02:31:00,77.1,70.0,30.08,West,273,2.0,5.0,79,0.00,,,0.00,weatherlink.com 1.10,2013-06-17 06:31:00,
2013-06-17 02:46:00,76.9,70.0,30.07,WSW,255,1.0,5.0,80,0.00,,,0.00,weatherlink.com 1.10,2013-06-17 06:46:00,
2013-06-17 03:01:00,76.8,71.0,30.07,SSW,197,2.0,4.0,82,0.00,,,0.00,weatherlink.com 1.10,2013-06-17 07:01:00,
2013-06-17 03:16:00,76.5,71.0,30.07,SW,217,2.0,4.0,82,0.00,,,0.00,weatherlink.com 1.10,2013-06-17 07:16:00,
2013-06-17 03:31:00,76.5,71.0,30.06,SSW,203,2.0,5.0,82,0.00,,,0.00,weatherlink.com 1.10,2013-06-17 07:31:00,
2013-06-17 03:46:00,76.8,71.0,30.06,SW,236,5.0,7.0,82,0.00,,,0.00,weatherlink.com 1.10,2013-06-17 07:46:00,
2013-06-17 04:01:00,77.0,71.0,30.06,WSW,252,2.0,6.0,82,0.00,,,0.00,weatherlink.com 1.10,2013-06-17 08:01:00,
2013-06-17 04:16:00,76.8,71.0,30.06,WSW,242,0.0,6.0,82,0.00,,,0.00,weatherlink.com 1.10,2013-06-17 08:16:00,
2013-06-17 04:31:00,76.6,71.0,30.06,SW,221,2.0,3.0,83,0.00,,,0.00,weatherlink.com 1.10,2013-06-17 08:31:00,
2013-06-17 04:46:00,76.5,71.0,30.06,WSW,248,1.0,4.0,84,0.00,,,0.00,weatherlink.com 1.10,2013-06-17 08:46:00,
2013-06-17 05:01:00,76.4,71.0,30.06,SW,232,1.0,3.0,84,0.00,,,0.00,weatherlink.com 1.10,2013-06-17 09:01:00,
2013-06-17 05:16:00,76.1,71.0,30.06,SW,232,1.0,2.0,85,0.00,,,0.00,weatherlink.com 1.10,2013-06-17 09:16:00,
2013-06-17 05:31:00,75.9,72.0,30.06,SW,235,1.0,2.0,86,0.00,,,0.00,weatherlink.com 1.10,2013-06-17 09:31:00,
2013-06-17 05:46:00,75.4,71.0,30.06,SW,217,0.0,1.0,86,0.00,,,0.00,weatherlink.com 1.10,2013-06-17 09:46:00,
2013-06-17 06:01:00,74.8,71.0,30.06,SSW,213,1.0,1.0,87,0.00,,,0.00,weatherlink.com 1.10,2013-06-17 10:01:00,
2013-06-17 06:16:00,74.4,71.0,30.06,SSW,208,0.0,1.0,88,0.00,,,0.00,weatherlink.com 1.10,2013-06-17 10:16:00,
2013-06-17 06:31:00,74.1,71.0,30.06,SSW,205,0.0,1.0,89,0.00,,,0.00,weatherlink.com 1.10,2013-06-17 10:31:00,
2013-06-17 06:46:00,73.9,71.0,30.06,SSW,205,0.0,0.0,90,0.00,,,0.00,weatherlink.com 1.10,2013-06-17 10:46:00,
2013-06-17 07:01:00,74.2,72.0,30.06,SSW,205,0.0,1.0,91,0.00,,,0.00,weatherlink.com 1.10,2013-06-17 11:01:00,
2013-06-17 07:16:00,74.8,72.0,30.07,SSW,205,0.0,0.0,91,0.00,,,0.00,weatherlink.com 1.10,2013-06-17 11:16:00,
2013-06-17 07:31:00,75.8,73.0,30.06,SW,227,1.0,1.0,90,0.00,,,0.00,weatherlink.com 1.10,2013-06-17 11:31:00,
2013-06-17 07:46:00,76.8,73.0,30.07,WSW,252,0.0,2.0,88,0.00,,,0.00,weatherlink.com 1.10,2013-06-17 11:46:00,
2013-06-17 08:01:00,78.1,73.0,30.07,West,266,4.0,6.0,84,0.00,,,0.00,weatherlink.com 1.10,2013-06-17 12:01:00,
2013-06-17 08:16:00,78.6,73.0,30.07,West,264,4.0,5.0,83,0.00,,,0.00,weatherlink.com 1.10,2013-06-17 12:16:00,
2013-06-17 08:31:00,79.2,73.0,30.07,WNW,287,4.0,8.0,82,0.00,,,0.00,weatherlink.com 1.10,2013-06-17 12:31:00,
2013-06-17 08:46:00,79.1,73.0,30.08,West,274,7.0,9.0,82,0.00,,,0.00,weatherlink.com 1.10,2013-06-17 12:46:00,
2013-06-17 09:01:00,79.2,73.0,30.07,West,259,4.0,7.0,82,0.00,,,0.00,weatherlink.com 1.10,2013-06-17 13:01:00,
2013-06-17 09:16:00,79.7,74.0,30.07,West,259,2.0,6.0,82,0.00,,,0.00,weatherlink.com 1.10,2013-06-17 13:16:00,
2013-06-17 09:31:00,80.2,73.0,30.06,WSW,245,4.0,8.0,79,0.00,,,0.00,weatherlink.com 1.10,2013-06-17 13:31:00,
2013-06-17 09:47:00,80.7,73.0,30.06,West,259,7.0,12.0,77,0.00,,,0.00,weatherlink.com 1.10,2013-06-17 13:47:00,
2013-06-17 10:02:00,81.1,73.0,30.06,WSW,241,5.0,8.0,76,0.00,,,0.00,weatherlink.com 1.10,2013-06-17 14:02:00,
2013-06-17 10:17:00,81.2,73.0,30.05,West,273,4.0,7.0,75,0.00,,,0.00,weatherlink.com 1.10,2013-06-17 14:17:00,
2013-06-17 10:32:00,81.6,73.0,30.06,West,278,6.0,7.0,74,0.00,,,0.00,weatherlink.com 1.10,2013-06-17 14:32:00,
2013-06-17 10:47:00,81.9,72.0,30.05,WSW,252,4.0,8.0,72,0.00,,,0.00,weatherlink.com 1.10,2013-06-17 14:47:00,
2013-06-17 11:02:00,82.2,72.0,30.05,WSW,252,4.0,7.0,71,0.00,,,0.00,weatherlink.com 1.10,2013-06-17 15:02:00,
2013-06-17 11:17:00,82.5,72.0,30.06,WSW,239,1.0,6.0,71,0.00,,,0.00,weatherlink.com 1.10,2013-06-17 15:17:00,
2013-06-17 11:32:00,83.3,73.0,30.06,WSW,250,4.0,9.0,70,0.00,,,0.00,weatherlink.com 1.10,2013-06-17 15:32:00,
2013-06-17 11:47:00,83.3,73.0,30.05,SE,138,1.0,5.0,72,0.00,,,0.00,weatherlink.com 1.10,2013-06-17 15:47:00,
2013-06-17 12:02:00,84.4,74.0,30.05,SSE,159,0.0,13.0,70,0.00,,,0.00,weatherlink.com 1.10,2013-06-17 16:02:00,
2013-06-17 12:17:00,84.2,76.0,30.05,WSW,240,3.0,10.0,76,0.00,,,0.00,weatherlink.com 1.10,2013-06-17 16:17:00,
2013-06-17 12:32:00,84.4,76.0,30.05,SSE,155,3.0,10.0,75,0.00,,,0.00,weatherlink.com 1.10,2013-06-17 16:32:00,
2013-06-17 12:47:00,83.0,75.0,30.05,SW,220,4.0,12.0,77,0.00,,,0.00,weatherlink.com 1.10,2013-06-17 16:47:00,
2013-06-17 13:02:00,82.3,75.0,30.05,SW,215,2.0,10.0,79,0.00,,,0.00,weatherlink.com 1.10,2013-06-17 17:02:00,
2013-06-17 13:17:00,81.1,76.0,30.04,SW,218,2.0,9.0,84,0.02,,,0.02,weatherlink.com 1.10,2013-06-17 17:17:00,
2013-06-17 13:32:00,81.1,77.0,30.04,WSW,257,3.0,3.0,87,0.02,,,0.02,weatherlink.com 1.10,2013-06-17 17:32:00,
2013-06-17 13:47:00,82.2,76.0,30.04,WSW,252,4.0,10.0,82,0.02,,,0.02,weatherlink.com 1.10,2013-06-17 17:47:00,
2013-06-17 14:02:00,82.8,76.0,30.04,WSW,242,5.0,10.0,80,0.02,,,0.02,weatherlink.com 1.10,2013-06-17 18:02:00,
2013-06-17 14:17:00,83.7,76.0,30.04,SW,232,6.0,10.0,77,0.00,,,0.02,weatherlink.com 1.10,2013-06-17 18:17:00,
2013-06-17 14:32:00,83.5,76.0,30.03,East,91,3.0,13.0,78,0.00,,,0.02,weatherlink.com 1.10,2013-06-17 18:32:00,
2013-06-17 14:47:00,83.2,77.0,30.02,WSW,250,10.0,10.0,81,0.00,,,0.02,weatherlink.com 1.10,2013-06-17 18:47:00,
2013-06-17 15:02:00,83.2,77.0,30.02,SSE,153,3.0,9.0,81,0.00,,,0.02,weatherlink.com 1.10,2013-06-17 19:02:00,
2013-06-17 15:17:00,83.6,77.0,30.01,SSW,194,3.0,11.0,80,0.00,,,0.02,weatherlink.com 1.10,2013-06-17 19:17:00,
2013-06-17 15:32:00,84.1,77.0,30.01,SW,215,1.0,8.0,78,0.00,,,0.02,weatherlink.com 1.10,2013-06-17 19:32:00,
2013-06-17 15:47:00,83.5,76.0,30.00,West,259,3.0,9.0,79,0.00,,,0.02,weatherlink.com 1.10,2013-06-17 19:47:00,
2013-06-17 16:02:00,82.6,76.0,30.00,SW,228,3.0,11.0,81,0.00,,,0.02,weatherlink.com 1.10,2013-06-17 20:02:00,
2013-06-17 16:17:00,82.0,76.0,30.00,WSW,257,7.0,10.0,83,0.00,,,0.02,weatherlink.com 1.10,2013-06-17 20:17:00,
2013-06-17 16:32:00,82.7,76.0,29.99,SW,216,3.0,10.0,81,0.00,,,0.02,weatherlink.com 1.10,2013-06-17 20:32:00,
2013-06-17 16:47:00,82.9,76.0,29.99,SSW,205,2.0,9.0,80,0.00,,,0.02,weatherlink.com 1.10,2013-06-17 20:47:00,
2013-06-17 17:02:00,82.7,76.0,29.98,SSE,147,2.0,12.0,81,0.00,,,0.02,weatherlink.com 1.10,2013-06-17 21:02:00,
2013-06-17 17:17:00,82.8,76.0,29.98,WSW,239,5.0,11.0,80,0.00,,,0.02,weatherlink.com 1.10,2013-06-17 21:17:00,
2013-06-17 17:32:00,82.0,76.0,29.98,WSW,253,9.0,14.0,81,0.00,,,0.02,weatherlink.com 1.10,2013-06-17 21:32:00,
2013-06-17 17:47:00,81.6,76.0,29.98,SSE,165,1.0,10.0,83,0.00,,,0.02,weatherlink.com 1.10,2013-06-17 21:47:00,
2013-06-17 18:02:00,81.3,76.0,30.00,WSW,248,10.0,11.0,84,0.00,,,0.02,weatherlink.com 1.10,2013-06-17 22:02:00,
2013-06-17 18:17:00,80.9,76.0,29.99,SW,236,2.0,10.0,85,0.00,,,0.02,weatherlink.com 1.10,2013-06-17 22:17:00,
2013-06-17 18:32:00,80.5,76.0,30.00,SW,224,5.0,12.0,86,0.00,,,0.02,weatherlink.com 1.10,2013-06-17 22:32:00,
2013-06-17 18:47:00,80.3,76.0,30.00,SW,231,12.0,12.0,86,0.00,,,0.02,weatherlink.com 1.10,2013-06-17 22:47:00,
2013-06-17 19:02:00,80.2,76.0,30.01,SSW,194,6.0,10.0,86,0.00,,,0.02,weatherlink.com 1.10,2013-06-17 23:02:00,
2013-06-17 19:17:00,80.0,76.0,30.01,WSW,243,3.0,11.0,86,0.00,,,0.02,weatherlink.com 1.10,2013-06-17 23:17:00,
2013-06-17 19:32:00,79.9,76.0,30.01,West,259,6.0,11.0,87,0.00,,,0.02,weatherlink.com 1.10,2013-06-17 23:32:00,
2013-06-17 19:47:00,79.6,76.0,30.00,WSW,248,2.0,9.0,88,0.01,,,0.03,weatherlink.com 1.10,2013-06-17 23:47:00,
2013-06-17 20:03:00,78.6,76.0,30.00,WSW,251,3.0,5.0,91,0.03,,,0.05,weatherlink.com 1.10,2013-06-18 00:03:00,
2013-06-17 20:18:00,77.7,75.0,30.00,WSW,250,1.0,4.0,92,0.05,,,0.07,weatherlink.com 1.10,2013-06-18 00:18:00,
2013-06-17 20:33:00,77.4,75.0,30.00,WSW,250,0.0,1.0,92,0.07,,,0.09,weatherlink.com 1.10,2013-06-18 00:33:00,
2013-06-17 20:48:00,77.1,75.0,30.01,SW,217,1.0,1.0,94,0.07,,,0.10,weatherlink.com 1.10,2013-06-18 00:48:00,
2013-06-17 21:03:00,77.3,76.0,30.00,SSW,213,0.0,1.0,95,0.05,,,0.10,weatherlink.com 1.10,2013-06-18 01:03:00,
2013-06-17 21:18:00,77.4,76.0,30.00,SW,234,0.0,1.0,95,0.03,,,0.10,weatherlink.com 1.10,2013-06-18 01:18:00,
2013-06-17 21:33:00,77.4,76.0,30.00,SW,227,1.0,3.0,96,0.01,,,0.10,weatherlink.com 1.10,2013-06-18 01:33:00,
2013-06-17 21:48:00,77.6,76.0,30.01,SSW,194,1.0,5.0,95,0.00,,,0.10,weatherlink.com 1.10,2013-06-18 01:48:00,
2013-06-17 22:03:00,77.7,76.0,30.01,WSW,248,2.0,7.0,95,0.00,,,0.10,weatherlink.com 1.10,2013-06-18 02:03:00,
2013-06-17 22:18:00,77.7,76.0,30.02,SSW,201,1.0,7.0,94,0.00,,,0.10,weatherlink.com 1.10,2013-06-18 02:18:00,
2013-06-17 22:33:00,77.8,76.0,30.02,SW,226,3.0,5.0,94,0.00,,,0.10,weatherlink.com 1.10,2013-06-18 02:33:00,
2013-06-17 22:48:00,78.0,76.0,30.03,WSW,245,3.0,5.0,94,0.00,,,0.10,weatherlink.com 1.10,2013-06-18 02:48:00,
2013-06-17 23:03:00,77.9,76.0,30.03,SW,234,4.0,7.0,94,0.01,,,0.11,weatherlink.com 1.10,2013-06-18 03:03:00,
2013-06-17 23:18:00,77.7,76.0,30.03,West,263,2.0,5.0,95,0.03,,,0.13,weatherlink.com 1.10,2013-06-18 03:18:00,
2013-06-17 23:33:00,77.2,75.0,30.02,WSW,245,4.0,7.0,94,0.06,,,0.16,weatherlink.com 1.10,2013-06-18 03:33:00,
2013-06-17 23:48:00,76.3,74.0,30.02,South,173,0.0,3.0,93,0.07,,,0.17,weatherlink.com 1.10,2013-06-18 03:48:00,